"Pseudo-MPEC" for MHM2362

Created 2023 Apr 6 16:22:05 UT using Find_Orb

Click here for an explanation of pseudo-MPECs

 
 Astrometry: 
     MHM2362*KC2023 03 24YwqOm_SP,cugW0Gp=vRHCm)l_F0LD\#3hR'+03H,!P3w)[uPdg6dW16
     MHM2362 KC2023 03 24Q.4X1!=('HlnqxHQnJ['!voZc+E;GS)Y?^4\f;_3d0e2aZ6v;8;2W16
     MHM2362 KC2023 03 244dlRo7GpE*)dh=F/3+BwAstrometry;-cVAS7lHIZ2;2[-3+,=4pW16
     MHM2362 KC2023 03 24`,po?VkpKR3(t35eY74redacted;:I)^j:iv1WFqc=@\M1,x@8-oW16
     MHM2362 KC2023 03 24Wg,k'/tame!6;3Hb^1%%H,jT*.te\ZWIAH*click*wkxGhW46?rxW16
     MHM2362 KC2023 03 24QJ*BhereX5*-+i4l/ev:AlXBZ5VK/)M-4Ql0c';p[9I+Y[[MwW?/W16
     MHM2362 KC2023 03 24ySy0$.m+o[\alFB-p#a0'#;`_forQg6.,Fa9EK-rIT`F``-VnfEKW16
     MHM2362 KC2023 03 24\_03L!u2!6KFbC-ZGc4-'4mBu#`ij_explanationoDYmJZh6[$;W16

Station data:
(W16) Pleasant Groves Observatory  (N34.711888 W86.231310)  US/Alabama.
   Observer M. Holbrook. 0.36-m reflector + CCD.

Orbital elements:  MHM2362
   Perihelion 2023 Mar 23.07360 +/- 29 TT =  1:45:59 (JD 2460026.57360)
Epoch 2023 Mar 24.0 TT = JDT 2460027.5   Earth MOID: 0.1505   Ju: 0.0755
M   0.16924439 +/- 13               Ma: 0.0487                   AutoNEOCP
n   0.18269084 +/- 0.154            Peri.   13.22718 +/- 43
a   3.07603676 +/- 1.73             Node   168.55331 +/- 8
e   0.6270682 +/- 0.167             Incl.    1.25947 +/- 0.42
P   5.39                   H 24.26  G  0.15   U 11.5  SR
q 1.14715191 +/- 0.115    Q 5.00492161 +/- 2.03           (J2000 ecliptic)
From 8 observations 2023 Mar. 24 (2.7 hr); mean residual 0".32
Residuals in arcseconds: 
230324 W16  .11+  .17-    230324 W16  .56+  .07+    230324 W16  .42+  .46-    
230324 W16  .45-  .04+    230324 W16  .03+  .37-    230324 W16  .06-  .47+    
230324 W16  .15-  .15+    230324 W16  .46-  .25+    

Ephemerides (geocentric):
Date (UTC) HH   RA             Dec           delta  r     elong  mag " sig PA
---- --------  ------------   ------------  ------ ------ -----  --- --------
2023 04 06 16  13 14 35.989   -03 18 35.98  .16190 1.1620 175.2 21.1 791'  12
2023 04 06 17  13 14 46.158   -03 19 21.97  .16198 1.1621 175.2 21.1 797'  12
2023 04 06 18  13 14 56.318   -03 20 07.93  .16205 1.1622 175.2 21.1 802'  12
2023 04 06 19  13 15 06.467   -03 20 53.85  .16213 1.1623 175.2 21.1 808'  12
2023 04 06 20  13 15 16.607   -03 21 39.73  .16220 1.1624 175.2 21.1 814'  12
2023 04 06 21  13 15 26.736   -03 22 25.58  .16227 1.1624 175.2 21.1 820'  12
2023 04 06 22  13 15 36.856   -03 23 11.39  .16235 1.1625 175.2 21.1 826'  12
2023 04 06 23  13 15 46.965   -03 23 57.16  .16242 1.1626 175.2 21.1 831'  12
2023 04 07 00  13 15 57.064   -03 24 42.90  .16250 1.1627 175.2 21.1 837'  12
2023 04 07 01  13 16 07.153   -03 25 28.60  .16257 1.1628 175.2 21.1 843'  12
2023 04 07 02  13 16 17.233   -03 26 14.26  .16265 1.1629 175.2 21.1 849'  12
2023 04 07 03  13 16 27.302   -03 26 59.89  .16272 1.1630 175.2 21.1 855'  12
2023 04 07 04  13 16 37.360   -03 27 45.49  .16280 1.1630 175.2 21.1 860'  12
2023 04 07 05  13 16 47.409   -03 28 31.04  .16288 1.1631 175.2 21.1 866'  12
2023 04 07 06  13 16 57.448   -03 29 16.56  .16295 1.1632 175.2 21.1 872'  12
2023 04 07 07  13 17 07.476   -03 30 02.04  .16303 1.1633 175.2 21.1 878'  12
2023 04 07 08  13 17 17.494   -03 30 47.48  .16311 1.1634 175.1 21.1 883'  12
2023 04 07 09  13 17 27.502   -03 31 32.89  .16318 1.1635 175.1 21.1 889'  12
2023 04 07 10  13 17 37.500   -03 32 18.26  .16326 1.1636 175.1 21.1 895'  11
2023 04 07 11  13 17 47.487   -03 33 03.60  .16334 1.1637 175.1 21.1 900'  11
2023 04 07 12  13 17 57.464   -03 33 48.89  .16341 1.1637 175.1 21.1 906'  11
2023 04 07 13  13 18 07.431   -03 34 34.15  .16349 1.1638 175.1 21.1 912'  11
2023 04 07 14  13 18 17.387   -03 35 19.37  .16357 1.1639 175.1 21.1 917'  11
2023 04 07 15  13 18 27.334   -03 36 04.55  .16365 1.1640 175.1 21.1 923'  11
2023 04 07 16  13 18 37.270   -03 36 49.70  .16373 1.1641 175.1 21.1 928'  11
2023 04 07 17  13 18 47.195   -03 37 34.81  .16381 1.1642 175.1 21.1 934'  11
2023 04 07 18  13 18 57.110   -03 38 19.88  .16389 1.1643 175.1 21.1 940'  11
2023 04 07 19  13 19 07.015   -03 39 04.91  .16396 1.1644 175.1 21.1 945'  11
2023 04 07 20  13 19 16.910   -03 39 49.90  .16404 1.1645 175.1 21.1 951'  11
2023 04 07 21  13 19 26.794   -03 40 34.86  .16412 1.1645 175.1 21.1 956'  11
2023 04 07 22  13 19 36.667   -03 41 19.78  .16420 1.1646 175.1 21.1 962'  11
2023 04 07 23  13 19 46.531   -03 42 04.66  .16428 1.1647 175.1 21.1 967'  11
2023 04 08 00  13 19 56.383   -03 42 49.50  .16436 1.1648 175.1 21.1 973'  11
2023 04 08 01  13 20 06.226   -03 43 34.30  .16444 1.1649 175.1 21.1 978'  11
2023 04 08 02  13 20 16.057   -03 44 19.07  .16453 1.1650 175.1 21.1 984'  11
2023 04 08 03  13 20 25.879   -03 45 03.79  .16461 1.1651 175.1 21.1 989'  11
2023 04 08 04  13 20 35.690   -03 45 48.48  .16469 1.1652 175.1 21.1 994'  11
2023 04 08 05  13 20 45.490   -03 46 33.13  .16477 1.1653 175.1 21.1  17d  11
2023 04 08 06  13 20 55.280   -03 47 17.74  .16485 1.1654 175.1 21.1  17d  11
2023 04 08 07  13 21 05.059   -03 48 02.31  .16493 1.1655 175.0 21.1  17d  11
2023 04 08 08  13 21 14.828   -03 48 46.84  .16501 1.1656 175.0 21.1  17d  11
2023 04 08 09  13 21 24.586   -03 49 31.34  .16510 1.1657 175.0 21.1  17d  11
2023 04 08 10  13 21 34.334   -03 50 15.79  .16518 1.1657 175.0 21.1  17d  11
2023 04 08 11  13 21 44.071   -03 51 00.21  .16526 1.1658 175.0 21.1  17d  10
2023 04 08 12  13 21 53.797   -03 51 44.59  .16535 1.1659 175.0 21.1  17d  10
2023 04 08 13  13 22 03.513   -03 52 28.92  .16543 1.1660 175.0 21.1  17d  10
2023 04 08 14  13 22 13.218   -03 53 13.22  .16551 1.1661 175.0 21.1  17d  10
2023 04 08 15  13 22 22.913   -03 53 57.48  .16560 1.1662 175.0 21.1  18d  10